Back to catalog

STARLINK-35086

AliveCommunicationsVLEO
NORAD 65699·PAYLOAD·🇺🇸 United States

Launched Sep 21, 2025 from Cape Canaveral Space Force Station

Loading…

Next Passes (next 24 hours)

TLE

FreshSource: CelesTrak SupGP

Epoch: Sep 14, 2026, 20:56 UTC

1 65699C 25212Z   26257.87270833  .00010826  00000+0  34794-3 0  2570
2 65699  53.1574 186.1273 0001448 103.5320 116.7250 15.31712979    19

Track STARLINK-35086 in real time with AllMySat

Download on the App Store